{"data":{"norad_id":64113,"intl_designator":"2025-110T","name":"STARLINK-33839","alt_names":[],"object_type":"PAYLOAD","status":"ACTIVE","operator":null,"country":"US","launch_date":"2025-05-23","launch_site_code":"AFWTR","launch_vehicle":null,"mission":null,"orbit_class":"UNKNOWN","rcs_meters":null,"size_class":null,"mass_kg":null,"dimensions":null,"purposes":["comms"],"wikipedia_slug":null,"has_3d_model":false,"image_url":null,"decayed_at":null,"tle_current":{"epoch":"2026-05-24T23:08:13.907904Z","epoch_age_seconds":74206,"freshness":"FRESH","line1":"1 64113U 25110T   26144.96404986  .00018621  00000+0  61014-3 0  9999","line2":"2 64113  53.1597  32.2456 0000976  81.2711 278.8401 15.31709953 57567","mean_motion":15.31709953,"eccentricity":9.76e-5,"inclination_deg":53.1597,"raan_deg":32.2456,"arg_perigee_deg":81.2711,"mean_anomaly_deg":278.8401,"bstar":0.00061014,"rev_number":5756,"period_min":94.012577066541,"perigee_km":470.0418785122,"apogee_km":471.37877351024,"semimajor_km":6848.8473260112,"source":"CELESTRAK","updated_at":"2026-05-25T13:38:20.267658Z"}}}